STARLINK-11404, 62019

Orbit data source: Space-Track

STARLINK-11404, 62019 is a payload satellite owned by SpaceX/Seattle (US) in LEO that was launched on Mon, 18 Nov 2024 UTC via an FALCON 9 launch vehicle from the Air Force Western Test Range (AFWTR). Payload-class satellites include a variety of spacecraft equipped with specific instruments for various scientific and technological missions. These include communications satellites like Starlink; space stations such as the ISS; scientific satellites like the Hubble; Earth observation satellites from companies like Planet Labs, Umbra, and HawkEye 360; GPS; miniature CubeSats for education and research; and military/defense satellites.

Loading next visibility...
Identifier
62019, 2024-213M
Orbit
LEO
Last TLE update
6 hours ago
Origin
Manufacturer
SpaceX/Seattle
Mission
Operational Commercial Communications
Bus & Motor
STARLINK V2M, Unknown motor
Mass
730 kg wet, ~700 kg dry
Launch date (UTC)
2024-11-18 (7 months ago)
Launch vehicle
FALCON 9
Launch site
Air Force Western Test Range (AFWTR)
Object type
Payload
Rocket body
Debris
Shape & HBR
Box + 2 Pan, 29 m
Radar Cross Section
36.964 m², Large (>1 m²)

Expand to show TLE details & history

TLE from 6 hours ago
0 STARLINK-11404
1 62019U 24213M   25181.76971844  .00174065  00000-0  14085-2 0  9996
2 62019  53.1570 203.4760 0001457  76.0792 284.0388 15.69763970 36343
Epoch: 2025-06-30T18:28Z
TLE epoch observation values (Epoch: 2025-06-30T18:28:23.673Z)
Latitude
Longitude
7.3026°
Altitude
360.249 km
Speed
7.694 km/s
True Right ascension
13h 33m 54s
True Declination
0° 00' 00"
Sunlit
Object was in daylight at epoch
Visualization orbit readout
Latitude
-40.28221°
Longitude
-134.68454°
Altitude
373.513 km
Speed
7.685 km/s
Apparent Right ascension
01h 56m 39s
Apparent Declination
-45° 01' 30"
Sunlit
Object is in daylight
Visualization observer readout
Local Sidereal Time
11:39:37
Azimuth
247.141° WSW
Elevation
-64.418°
Doppler factor
1
Orbital elements
Apogee altitude
360.815 km
Perigee altitude
358.852 km
Semi-major axis
6,737.97 km
Eccentricity
0.00015
Inclination
53.157°
RAAN
203.476°
Arg. of periapsis
76.0792°
True anomaly
Unknown
Mean anomaly
284.0388°
Eccentric anomaly
Unknown
Mean motion
3.92419 °/min
Orbital period
91.74 mins
BSTAR
0.0014085
Loading maneuver chart data...
Loading SW <> Apogee altitude chart data...
Loading historical data...
Loading historical data...
Loading historical data...
Loading historical data...
Loading historical data...
Loading historical data...
Loading historical data...

STARLINK-11404 Visibility forecast

Observer location: undefined°, undefined°

Span
Click to sort rows by Start time (UTC) header in descending order
Start Az.
Max El. time (UTC)
Max El. Az.
Max El.
End time (UTC)
End Az.
4 mins2025-07-01 03:48:52.536Z194.626° SSW2025-07-01 03:50:52.536Z130.979° SE29.724°2025-07-01 03:52:52.536Z72.354° E
|